Content
SEND FEEDBACK

Daily
Averages
Monthly
Summary
United States of America

ARCATA, CALIFORNIA


Home > North America > United States > California
Elevation: 217 feet     Latitude: 40 58N     Longitude: 124 06W

WEATHER
 
SELECT A DAY
Number of Records: 239,516;   Date Range: 1/1/95 - 7/23/14
 
SHARE

PRINT THIS DATA

[ ← Previous Day ]
WEATHER ALMANAC - JUNE 26, 2013
[ Next Day → ]
[ °C ]   °F
We're sorry. There is no daily almanac available for Arcata, California on June 26, 2013.
WEATHER BY HOUR - JUNE 26, 2013
[ °C ]   °F
Local TimeTemperatureDewpointHumidityBarometerVisibilityWind DirectionWind SpeedGust SpeedPrecipitationEventsConditions
12:11 AM57.2 °F57.2 °F100 %29.92 in4.0 miVariable3.5 mph0.01 inRainLight Rain
12:23 AM57.2 °F57.2 °F100 %29.92 in3.0 miCalm0.02 inRainLight Rain
12:40 AM57.2 °F57.2 °F100 %29.92 in2.5 miCalm0.03 inRainLight Rain
12:44 AM57.2 °F57.2 °F100 %29.92 in3.0 miCalm0.03 inRainLight Rain
12:53 AM57.9 °F57.9 °F100 %29.93 in4.0 miCalm0.04 inRainLight Rain
1:14 AM59.0 °F57.2 °F94 %29.92 in1.8 miCalm0.02 inRainRain
1:20 AM59.0 °F57.2 °F94 %29.92 in2.0 miCalm0.03 inRainLight Rain
1:30 AM57.2 °F57.2 °F100 %29.93 in2.5 miWest (260°)4.6 mph0.03 inRainLight Rain
1:53 AM57.0 °F57.0 °F100 %29.94 in2.5 miCalm0.05 inRainLight Rain
2:16 AM57.2 °F57.2 °F100 %29.93 in4.0 miCalm0.01 inRainLight Rain
2:53 AM59.0 °F57.9 °F96 %29.94 in3.0 miCalm0.03 inRainLight Rain
3:53 AM59.0 °F57.9 °F96 %29.94 in2.5 miCalm0.02 inRainLight Rain
4:01 AM59.0 °F57.2 °F94 %29.93 in3.0 miCalm0.01 inRainLight Rain
4:30 AM59.0 °F57.2 °F94 %29.93 in2.5 miCalm0.02 inRainLight Rain
4:53 AM59.0 °F59.0 °F100 %29.95 in2.0 miCalm0.05 inRainLight Rain
5:53 AM59.0 °F57.9 °F96 %29.96 in1.8 miCalm0.05 inRainLight Rain
6:09 AM57.2 °F57.2 °F100 %29.95 in2.0 miSSW (210°)4.6 mph0.02 inRainLight Rain
6:28 AM57.2 °F57.2 °F100 %29.95 in1.8 miSW (230°)4.6 mph0.04 inRainLight Rain
6:53 AM57.9 °F57.0 °F97 %29.98 in1.0 miSW (230°)4.6 mph0.06 inRainLight Rain
7:53 AM57.0 °F57.0 °F100 %29.99 in0.8 miSouth (170°)4.6 mph0.07 inRainLight Rain
8:06 AM57.2 °F57.2 °F100 %29.98 in1.2 miSE (130°)4.6 mph0.01 inRainLight Rain
8:17 AM59.0 °F57.2 °F94 %29.99 in1.2 miSE (140°)4.6 mph0.02 inRainLight Rain
8:27 AM59.0 °F57.2 °F94 %29.99 in1.2 miSE (130°)4.6 mph0.02 inRainLight Rain
8:33 AM59.0 °F57.2 °F94 %29.99 in3.0 miSE (140°)5.8 mph0.02 inRainLight Rain
8:53 AM60.1 °F59.0 °F96 %30.01 in8.0 miCalm0.03 inRainLight Rain
9:53 AM62.1 °F60.1 °F93 %30.01 in10.0 miSE (130°)6.9 mph0.00 inOvercast
10:53 AM63.0 °F60.1 °F90 %30.03 in10.0 miSE (130°)8.1 mphOvercast
11:53 AM64.9 °F60.1 °F84 %30.04 in10.0 miSE (140°)5.8 mphOvercast
12:53 PM63.0 °F59.0 °F87 %30.05 in9.0 miCalmOvercast
1:53 PM62.1 °F57.9 °F86 %30.05 in10.0 miWest (280°)4.6 mphOvercast
2:53 PM64.0 °F57.9 °F80 %30.05 in10.0 miCalmOvercast
3:53 PM62.1 °F57.0 °F84 %30.05 in10.0 miNW (310°)5.8 mphOvercast
4:53 PM66.0 °F59.0 °F78 %30.05 in9.0 miNW (320°)4.6 mphOvercast
5:53 PM64.0 °F57.9 °F80 %30.06 in10.0 miSSW (210°)6.9 mphOvercast
6:53 PM63.0 °F57.9 °F84 %30.06 in10.0 miWSW (240°)5.8 mphOvercast
7:37 PM64.4 °F59.0 °F83 %30.04 in10.0 miVariable3.5 mphMostly Cloudy
7:53 PM62.1 °F57.9 °F86 %30.05 in10.0 miWest (260°)3.5 mphMostly Cloudy
8:37 PM60.8 °F57.2 °F88 %30.05 in10.0 miVariable4.6 mphOvercast
8:53 PM61.0 °F57.9 °F90 %30.06 in10.0 miNorthOvercast
9:53 PM61.0 °F57.9 °F90 %30.07 in10.0 miSouth (170°)4.6 mphOvercast
10:20 PM60.8 °F57.2 °F88 %30.06 in10.0 miCalmOvercast
10:53 PM61.0 °F57.9 °F90 %30.08 in10.0 miCalmOvercast
11:13 PM60.8 °F57.2 °F88 %30.06 in10.0 miCalmOvercast
11:53 PM57.9 °F57.0 °F97 %30.08 in4.0 miCalmOvercast
Hourly data recorded from KACV, located miles away from Arcata, California







STORIES FROM OUR PARTNERS